Saint Simons Island, GA

4:37 AM EST on December 07, 2019 (GMT -0500)
McKinnon

Weather History for KSSI - October, 2019

Change the Weather History Date:

Wednesday, October 16, 2019

  Actual Average Record
Temperature  
Mean Temperature 79 °F 70 °F  
Max Temperature 88 °F 78 °F 88 °F (2017)
Min Temperature 70 °F 62 °F 44 °F (1961)
Degree Days  
Heating Degree Days 0 1  
Month to date heating degree days 0 6  
Since 1 July heating degree days 0 6  
Cooling Degree Days 14 6  
Month to date cooling degree days 216 125  
Year to date cooling degree days 3203 2496  
Growing Degree Days 30 (Base 50)    
Moisture  
Dew Point 70 °F    
Average Humidity 71    
Maximum Humidity 87    
Minimum Humidity 55    
Precipitation  
Precipitation 0.27 in 0.17 in 3.87 in (1956)
Month to date precipitation 2.13 2.80  
Year to date precipitation 29.23 38.67  
Snow  
Snow 0.00 in - 0.00 in ()
Month to date snowfall 0.0  
Since 1 July snowfall 0.0  
Since 1 September snowfall 0.0  
Snow Depth 0.00 in    
Sea Level Pressure  
Sea Level Pressure 29.83 in    
Wind  
Wind Speed 10 mph (WSW)    
Max Wind Speed 20 mph    
Max Gust Speed 28 mph    
Visibility 9 miles    
Events Rain    
T = Trace of Precipitation, MM = Missing Value Source: NWS Daily Summary

Daily Weather History Graph

Daily Weather History Graph

Search for Another Location

Airport or City:

Astronomy

Oct. 16, 2019 Rise Set
Actual Time 7:28 AM EDT 6:52 PM EDT
Civil Twilight 7:04 AM EDT 7:17 PM EDT
Nautical Twilight 6:36 AM EDT 7:45 PM EDT
Astronomical Twilight 6:08 AM EDT 8:13 PM EDT
Moon 8:54 PM EDT (10/16) 9:50 AM EDT (10/16)
Length of Visible Light 12h 12m
Length of Day
11h 24m
Waning Gibbous, 93% of the Moon is Illuminated
Oct 16
Waning Gibbous
Oct 21
Last Quarter
Oct 27
New
Nov 4
First Quarter
Nov 12
Full

Hourly Weather History & Observations

Time (EDT) Temp. Heat Index Dew Point Humidity Pressure Visibility Wind Dir Wind Speed Gust Speed Precip Events Conditions
12:24 AM 77.0 °F - 73.0 °F 88% 29.93 in 5.0 mi SE 8.1 mph - 0.05 in Rain Rain
12:32 AM 77.0 °F - 73.0 °F 88% 29.93 in 10.0 mi SSE 5.8 mph - 0.05 in Rain Light Rain
12:53 AM 78.1 °F - 73.0 °F 84% 29.92 in 10.0 mi SSE 9.2 mph - 0.06 in   Overcast
1:53 AM 75.9 °F - 72.0 °F 87% 29.90 in 7.0 mi SSW 11.5 mph 19.6 mph 0.04 in Rain Light Rain
2:53 AM 75.0 °F - 70.0 °F 84% 29.89 in 6.0 mi SSW 12.7 mph - 0.07 in Rain Rain
3:53 AM 73.9 °F - 70.0 °F 87% 29.88 in 10.0 mi SSW 11.5 mph - 0.12 in   Overcast
4:53 AM 73.9 °F - 70.0 °F 87% 29.85 in 10.0 mi SSW 6.9 mph - N/A   Mostly Cloudy
5:21 AM 73.9 °F - 70.0 °F 87% 29.85 in 10.0 mi SSW 11.5 mph - N/A   Mostly Cloudy
5:53 AM 73.9 °F - 70.0 °F 87% 29.86 in 10.0 mi SW 10.4 mph - N/A   Overcast
6:35 AM 73.9 °F - 70.0 °F 87% 29.83 in 10.0 mi SSW 10.4 mph - N/A   Mostly Cloudy
6:53 AM 73.9 °F - 70.0 °F 87% 29.83 in 10.0 mi SSW 10.4 mph - N/A   Scattered Clouds
7:24 AM 73.9 °F - 70.0 °F 87% 29.81 in 10.0 mi SSW 11.5 mph - N/A   Mostly Cloudy
7:53 AM 73.9 °F - 70.0 °F 87% 29.81 in 10.0 mi SSW 11.5 mph - N/A   Overcast
8:11 AM 73.9 °F - 70.0 °F 87% 29.80 in 10.0 mi SSW 12.7 mph 20.7 mph N/A   Overcast
8:53 AM 75.0 °F - 71.1 °F 87% 29.82 in 10.0 mi SW 15.0 mph - N/A   Overcast
9:53 AM 75.9 °F - 71.1 °F 85% 29.83 in 10.0 mi WSW 11.5 mph - N/A   Overcast
10:11 AM 77.0 °F - 72.0 °F 84% 29.82 in 10.0 mi WSW 13.8 mph 19.6 mph N/A   Overcast
10:53 AM 80.1 °F 83.8 °F 72.0 °F 76% 29.82 in 10.0 mi WSW 13.8 mph - N/A   Overcast
11:08 AM 81.0 °F 85.2 °F 72.0 °F 74% 29.81 in 10.0 mi WSW 17.3 mph 23.0 mph N/A   Mostly Cloudy
11:50 AM 78.8 °F - 73.4 °F 83% 29.81 in 3.0 mi WSW 10.4 mph - 0.04 in Rain Light Rain
11:53 AM 78.1 °F - 73.9 °F 87% 29.81 in 8.0 mi WSW 10.4 mph - 0.04 in Rain Light Rain
12:53 PM 84.9 °F 91.4 °F 73.0 °F 67% 29.80 in 10.0 mi West 11.5 mph - 0.00 in   Scattered Clouds
1:02 PM 81.0 °F 84.9 °F 71.1 °F 72% 29.79 in 10.0 mi NW 11.5 mph - N/A   Mostly Cloudy
1:09 PM 81.0 °F 84.9 °F 71.1 °F 72% 29.79 in 10.0 mi WNW 9.2 mph 17.3 mph N/A   Mostly Cloudy
1:53 PM 86.0 °F 89.4 °F 68.0 °F 55% 29.78 in 10.0 mi WNW 13.8 mph 23.0 mph N/A   Partly Cloudy
2:53 PM 84.9 °F 87.6 °F 66.9 °F 55% 29.77 in 10.0 mi WNW 11.5 mph 20.7 mph N/A   Scattered Clouds
3:53 PM 84.9 °F 87.1 °F 66.0 °F 53% 29.78 in 10.0 mi West 13.8 mph 21.9 mph N/A   Scattered Clouds
4:53 PM 82.9 °F 85.4 °F 66.9 °F 58% 29.77 in 10.0 mi West 10.4 mph - N/A   Partly Cloudy
5:53 PM 82.9 °F 84.6 °F 64.9 °F 54% 29.76 in 10.0 mi West 12.7 mph 21.9 mph N/A   Clear
6:53 PM 80.1 °F 81.9 °F 64.9 °F 60% 29.78 in 10.0 mi West 8.1 mph - N/A   Clear
7:53 PM 78.1 °F - 66.0 °F 66% 29.79 in 10.0 mi West 8.1 mph - N/A   Clear
8:53 PM 75.0 °F - 66.9 °F 76% 29.82 in 10.0 mi WSW 4.6 mph - N/A   Clear
9:53 PM 75.0 °F - 66.0 °F 73% 29.84 in 10.0 mi West 5.8 mph - N/A   Clear
10:53 PM 75.0 °F - 66.0 °F 73% 29.87 in 10.0 mi West 8.1 mph - N/A   Scattered Clouds
11:53 PM 73.0 °F - 63.0 °F 71% 29.89 in 10.0 mi Variable 5.8 mph - N/A   Clear